STARLINK-36342

Last updated on Thu Mar 05 2026 00:02:08 GMT+0000 (Coordinated Universal Time)

1 67649U 26022B 26063.07153510 .00197296 00000+0 12878-2 0 9994 2 67649 97.2832 96.7597 0001241 143.0086 217.1265 15.75288231 4660
UTC large
Height (km)
Speed (km/s)
/
Latitude / Longitude
Inclination (degrees)
Orbital Period (minutes)
Azimuth
Elevation
Range (km)
Doppler Factor

Next 0 passes for location: London (51.5072 / 0.1276)

Sorry there are no passes over London.